When you browse on this site, cookies collect data to enhance your experience and personalize the content and advertising you see.
Visit our Privacy Policy to learn more. By continuing to use the site, you agree to this use of cookies and data.
  • In Österreich
  • Länderverzeichnis
  • Für 7 Tage
  • Wassertemperatur
  • Satellitenkarten
  • Wetterkarte
  • News
  • Widgets
  • user-avatar
    Anmelden

    Stündliche Wetter Berat

    Heute, 17 Juli, Mittwoch

    Zeit Temperatur Niederschläge Wind Luftdruck Luftfeuchtigkeit
    00:00 +18°C° 0 mm 2 m/S 739 mmHg 86%
    01:00 +19°C° 0 mm 2 m/S 739 mmHg 85%
    02:00 +18°C° 0 mm 2 m/S 739 mmHg 85%
    03:00 +18°C° 0 mm 2 m/S 739 mmHg 85%
    04:00 +18°C° 0 mm 2 m/S 739 mmHg 85%
    05:00 +19°C° 0 mm 2 m/S 739 mmHg 80%
    06:00 +21°C° 0 mm 2 m/S 740 mmHg 76%
    07:00 +23°C° 0 mm 2 m/S 740 mmHg 71%
    08:00 +25°C° 0 mm 2 m/S 740 mmHg 63%
    09:00 +27°C° 0 mm 2 m/S 741 mmHg 54%
    10:00 +29°C° 0 mm 2 m/S 741 mmHg 46%
    11:00 +29°C° 0 mm 2 m/S 741 mmHg 44%
    12:00 +30°C° 0 mm 2 m/S 741 mmHg 42%
    13:00 +30°C° 0 mm 2 m/S 741 mmHg 40%
    14:00 +30°C° 0 mm 2 m/S 741 mmHg 43%
    15:00 +29°C° 0 mm 2 m/S 741 mmHg 46%
    16:00 +29°C° 0 mm 3 m/S 741 mmHg 49%
    17:00 +27°C° 0 mm 2 m/S 741 mmHg 57%
    18:00 +25°C° 0 mm 2 m/S 740 mmHg 64%
    19:00 +23°C° 0 mm 1 m/S 740 mmHg 71%
    20:00 +23°C° 0 mm 1 m/S 741 mmHg 73%
    21:00 +22°C° 0 mm 1 m/S 741 mmHg 75%
    22:00 +21°C° 0 mm 1 m/S 741 mmHg 77%
    23:00 +21°C° 0 mm 1 m/S 741 mmHg 75%

    Morgen, 18 Juli, Donnerstag

    Zeit Temperatur Niederschläge Wind Luftdruck Luftfeuchtigkeit
    00:00 +21°C° 0 mm 1 m/S 741 mmHg 73%
    01:00 +21°C° 0 mm 1 m/S 741 mmHg 71%
    02:00 +21°C° 0 mm 1 m/S 741 mmHg 70%
    03:00 +20°C° 0 mm 1 m/S 741 mmHg 69%
    04:00 +20°C° 0 mm 1 m/S 741 mmHg 68%
    05:00 +22°C° 0 mm 1 m/S 741 mmHg 63%
    06:00 +23°C° 0 mm 1 m/S 741 mmHg 59%
    07:00 +23°C° 0 mm 0 m/S 742 mmHg 55%
    08:00 +26°C° 0 mm 1 m/S 742 mmHg 51%
    09:00 +28°C° 0 mm 1 m/S 742 mmHg 46%
    10:00 +30°C° 0 mm 1 m/S 742 mmHg 42%
    11:00 +30°C° 0 mm 2 m/S 742 mmHg 41%
    12:00 +31°C° 0 mm 2 m/S 742 mmHg 39%
    13:00 +31°C° 0 mm 3 m/S 742 mmHg 38%
    14:00 +30°C° 0.2 mm 3 m/S 742 mmHg 44%
    15:00 +29°C° 0.2 mm 3 m/S 742 mmHg 49%
    16:00 +28°C° 0.2 mm 3 m/S 742 mmHg 55%
    17:00 +27°C° 0.2 mm 2 m/S 742 mmHg 59%
    18:00 +25°C° 0.2 mm 2 m/S 742 mmHg 64%
    19:00 +24°C° 0.2 mm 1 m/S 742 mmHg 68%
    20:00 +23°C° 0 mm 1 m/S 742 mmHg 70%
    21:00 +23°C° 0 mm 1 m/S 743 mmHg 71%
    22:00 +22°C° 0 mm 1 m/S 743 mmHg 72%
    23:00 +22°C° 0 mm 1 m/S 743 mmHg 72%

    übermorgen, 19 Juli, Freitag

    Zeit Temperatur Niederschläge Wind Luftdruck Luftfeuchtigkeit
    00:00 +22°C° 0 mm 1 m/S 743 mmHg 73%
    01:00 +21°C° 0 mm 1 m/S 743 mmHg 73%
    02:00 +21°C° 0 mm 1 m/S 743 mmHg 73%
    03:00 +21°C° 0 mm 1 m/S 743 mmHg 73%
    04:00 +21°C° 0 mm 1 m/S 743 mmHg 74%
    05:00 +22°C° 0 mm 1 m/S 743 mmHg 69%
    06:00 +24°C° 0 mm 1 m/S 744 mmHg 64%
    07:00 +24°C° 0 mm 0 m/S 744 mmHg 59%
    08:00 +27°C° 0 mm 1 m/S 744 mmHg 54%
    09:00 +29°C° 0 mm 1 m/S 744 mmHg 49%
    10:00 +30°C° 0 mm 1 m/S 744 mmHg 44%
    11:00 +31°C° 0.1 mm 2 m/S 744 mmHg 43%
    12:00 +31°C° 0.1 mm 3 m/S 744 mmHg 42%
    13:00 +33°C° 0.1 mm 3 m/S 744 mmHg 41%
    14:00 +31°C° 0.3 mm 3 m/S 744 mmHg 44%
    15:00 +30°C° 0.3 mm 3 m/S 744 mmHg 46%
    16:00 +29°C° 0.3 mm 4 m/S 744 mmHg 49%
    17:00 +28°C° 0.1 mm 3 m/S 744 mmHg 54%
    18:00 +26°C° 0.1 mm 2 m/S 744 mmHg 60%
    19:00 +25°C° 0.1 mm 1 m/S 744 mmHg 65%
    20:00 +24°C° 0 mm 1 m/S 745 mmHg 66%
    21:00 +24°C° 0 mm 1 m/S 745 mmHg 67%
    22:00 +23°C° 0 mm 1 m/S 745 mmHg 67%
    23:00 +23°C° 0 mm 1 m/S 745 mmHg 68%

    20 Juli, Samstag

    Zeit Temperatur Niederschläge Wind Luftdruck Luftfeuchtigkeit
    00:00 +23°C° 0 mm 1 m/S 745 mmHg 68%
    01:00 +22°C° 0 mm 1 m/S 745 mmHg 69%
    02:00 +22°C° 0 mm 1 m/S 745 mmHg 70%
    03:00 +22°C° 0 mm 1 m/S 745 mmHg 70%
    04:00 +22°C° 0 mm 1 m/S 745 mmHg 71%
    05:00 +23°C° 0 mm 1 m/S 745 mmHg 66%
    06:00 +23°C° 0 mm 0 m/S 745 mmHg 61%
    07:00 +24°C° 0 mm 0 m/S 745 mmHg 56%
    08:00 +28°C° 0 mm 1 m/S 746 mmHg 51%
    09:00 +30°C° 0 mm 1 m/S 746 mmHg 46%
    10:00 +32°C° 0 mm 1 m/S 746 mmHg 41%
    11:00 +32°C° 0 mm 2 m/S 746 mmHg 40%
    12:00 +34°C° 0 mm 3 m/S 746 mmHg 39%
    13:00 +34°C° 0 mm 4 m/S 746 mmHg 37%
    14:00 +34°C° 0 mm 4 m/S 746 mmHg 40%
    15:00 +33°C° 0 mm 3 m/S 746 mmHg 42%
    16:00 +31°C° 0 mm 3 m/S 745 mmHg 44%
    17:00 +29°C° 0 mm 3 m/S 745 mmHg 50%
    18:00 +27°C° 0 mm 2 m/S 746 mmHg 55%
    19:00 +26°C° 0 mm 1 m/S 746 mmHg 61%
    20:00 +25°C° 0 mm 1 m/S 746 mmHg 61%
    21:00 +25°C° 0 mm 1 m/S 746 mmHg 62%
    22:00 +24°C° 0 mm 1 m/S 747 mmHg 62%
    23:00 +24°C° 0 mm 1 m/S 746 mmHg 63%

    21 Juli, Sonntag

    Zeit Temperatur Niederschläge Wind Luftdruck Luftfeuchtigkeit
    00:00 +24°C° 0 mm 1 m/S 746 mmHg 63%
    01:00 +24°C° 0 mm 1 m/S 746 mmHg 63%
    02:00 +23°C° 0 mm 1 m/S 746 mmHg 64%
    03:00 +23°C° 0 mm 1 m/S 746 mmHg 64%
    04:00 +23°C° 0 mm 1 m/S 746 mmHg 64%
    05:00 +25°C° 0 mm 1 m/S 746 mmHg 60%
    06:00 +26°C° 0 mm 1 m/S 746 mmHg 56%
    07:00 +26°C° 0 mm 0 m/S 746 mmHg 52%
    08:00 +30°C° 0 mm 1 m/S 746 mmHg 47%
    09:00 +32°C° 0 mm 1 m/S 747 mmHg 43%
    10:00 +34°C° 0 mm 2 m/S 747 mmHg 39%
    11:00 +35°C° 0 mm 2 m/S 747 mmHg 38%
    12:00 +35°C° 0 mm 3 m/S 746 mmHg 37%
    13:00 +36°C° 0 mm 3 m/S 746 mmHg 36%
    14:00 +35°C° 0 mm 3 m/S 746 mmHg 39%
    15:00 +34°C° 0 mm 3 m/S 746 mmHg 42%
    16:00 +33°C° 0 mm 3 m/S 746 mmHg 45%
    17:00 +31°C° 0 mm 2 m/S 746 mmHg 51%
    18:00 +29°C° 0 mm 2 m/S 746 mmHg 58%
    19:00 +27°C° 0 mm 1 m/S 746 mmHg 64%
    20:00 +26°C° 0 mm 1 m/S 746 mmHg 66%
    21:00 +26°C° 0 mm 1 m/S 746 mmHg 67%
    22:00 +23°C° 0 mm 0 m/S 746 mmHg 68%
    23:00 +25°C° 0 mm 1 m/S 746 mmHg 68%

    22 Juli, Montag

    Zeit Temperatur Niederschläge Wind Luftdruck Luftfeuchtigkeit
    00:00 +25°C° 0 mm 1 m/S 746 mmHg 67%
    01:00 +25°C° 0 mm 1 m/S 746 mmHg 66%
    02:00 +25°C° 0 mm 1 m/S 745 mmHg 66%
    03:00 +24°C° 0 mm 1 m/S 745 mmHg 65%
    04:00 +24°C° 0 mm 1 m/S 745 mmHg 64%
    05:00 +26°C° 0 mm 1 m/S 745 mmHg 60%
    06:00 +28°C° 0 mm 1 m/S 745 mmHg 56%
    07:00 +27°C° 0 mm 0 m/S 746 mmHg 52%
    08:00 +31°C° 0 mm 1 m/S 746 mmHg 47%
    09:00 +33°C° 0 mm 1 m/S 746 mmHg 42%
    10:00 +35°C° 0 mm 1 m/S 746 mmHg 37%
    11:00 +36°C° 0 mm 2 m/S 745 mmHg 36%
    12:00 +37°C° 0 mm 2 m/S 745 mmHg 35%
    13:00 +37°C° 0 mm 3 m/S 745 mmHg 34%
    14:00 +36°C° 0 mm 3 m/S 744 mmHg 37%
    15:00 +36°C° 0 mm 3 m/S 744 mmHg 40%
    16:00 +35°C° 0 mm 3 m/S 744 mmHg 43%
    17:00 +33°C° 0 mm 3 m/S 744 mmHg 50%
    18:00 +30°C° 0 mm 2 m/S 744 mmHg 56%
    19:00 +28°C° 0 mm 1 m/S 744 mmHg 62%
    20:00 +27°C° 0 mm 1 m/S 744 mmHg 63%
    21:00 +27°C° 0 mm 1 m/S 744 mmHg 65%
    22:00 +24°C° 0 mm 0 m/S 744 mmHg 66%
    23:00 +26°C° 0 mm 1 m/S 744 mmHg 66%
    Mehr zeigen